Location: Jarosław
(50.0191°N, 22.6835°E)
Time: 20:26:02
(UTC+02:00)

ISS - Pass Details

Date: 26 March 2019
Orbit: 408 x 410 km, 51.6° (Epoch: 22 April)

Event Time Altitude Azimuth Distance (km) Brightness Sun altitude
Rises 19:24:19 0° 257° (WSW) 2,334 0.9 -15.3°
Reaches altitude 10° 19:26:24 10° 258° (WSW) 1,474 -0.2 -15.6°
Maximum altitude 19:29:43 82° 346° (NNW) 419 -3.8 -16.1°
Enters shadow 19:31:01 34° 70° (ENE) 694 -3.0 -16.3°
